Simultaneous Nadir Overpasses (SNOs) Predictions

Prediction of SNOs between GOES-17 and NOAA-19 Satellite Orbit:

Table of predicted SNOs for the next 14.0 days since TLE Epoch: 1/24/2025
Index Date Time (GOES-17) GOES-17 Lat,Lon NOAA-19 Lat,Lon Distance(km) Time Diff (sec)
1 01/25/2025 04:47:38 0.01,-104.69 -0.56,-107.20 286.54 80
2 01/26/2025 04:32:25 0.01,-104.68 0.11,-104.15 60.68 80
3 01/27/2025 04:19:54 0.00,-104.68 0.83,-101.11 407.81 80
4 01/28/2025 16:51:11 -0.01,-104.69 0.89,-108.63 449.27 80
5 01/29/2025 16:38:40 -0.01,-104.69 0.17,-105.59 101.88 80
6 01/30/2025 16:28:47 -0.00,-104.69 -0.49,-102.54 245.64 80
7 02/02/2025 04:47:43 0.01,-104.69 -0.54,-107.05 269.88 80
8 02/03/2025 04:32:31 0.00,-104.69 0.15,-104.00 77.63 80
9 02/04/2025 04:19:58 0.00,-104.68 0.84,-100.96 425.10 80
10 02/05/2025 16:51:18 -0.01,-104.68 0.84,-108.49 433.81 80
11 02/06/2025 16:38:45 -0.01,-104.68 0.16,-105.44 86.38 80
12 02/07/2025 16:28:53 -0.01,-104.68 -0.52,-102.39 261.00 80
